PROFILE

 METAR AND TAF INFORMATION
ADDS - METARS form results

(0153 UTC 20 February 2020)
http://aviationweather.gov/metar/data/
 
RJBB 200130Z 06004KT 360V090 9999 FEW020 BKN/// 09/02 Q1031 NOSIG
RJBB 200100Z 08005KT 050V130 9999 FEW030 BKN/// 08/03 Q1031 NOSIG
TAF RJBB 192305Z 2000/2106 01005KT 9999 FEW030 BECMG 2004/2006 28005KT BECMG 2009/2011 02014KT BECMG 2103/2106 30004KT 

 AIRPORT MAP

 RUNWAY INFORMATION
Runway 06L Runway length 13123 ft Runway width 196 ft
Runway elevation 24 ft Runway displaced threshold 0 ft Runway heading 51
Runway 24R Runway length 13123 ft Runway width 196 ft
Runway elevation 32 ft Runway displaced threshold 0 ft Runway heading 231
Runway 06R Runway length 11483 ft Runway width 196 ft
Runway elevation 6 ft Runway displaced threshold 0 ft Runway heading 51
Runway 24L Runway length 11483 ft Runway width 196 ft
Runway elevation 15 ft Runway displaced threshold 0 ft Runway heading 231

 AIRPORT FREQUENCIES
Type APP Name APP Frequency 120.25 MHZ
Type ATIS Name ATIS Frequency 127.85 MHZ
Type CLD Name CLNC DEL Frequency 121.9 MHZ
Type DEP Name DEP Frequency 119.2 MHZ
Type GND Name GND Frequency 121.6 MHZ
Type TCA Name TCA Frequency 121.1 MHZ
Type TWR Name TWR Frequency 118.2 MHZ

 AIRPORT NEAR NAVIGATION AIDS
Type NDB Name Kansai Frequency 346 KHZ
Type VOR-DME Name Kansai Frequency 111800 KHZ
Type VOR-DME Name Shigi Frequency 111600 KHZ
Type VOR-DME Name Shinoda Frequency 112300 KHZ
Type VOR-DME Name Tomo Frequency 116400 KHZ